Regional Weather Roundup
Issued by NWS

Home | Current Version | Previous Version | Text Only | Print | Product List | Glossary On
Versions: 1 2 3 4 5 6 7 8 9 10 11 12 13 14 15 16 17 18 19 20 21 22 23 24 25 26 27 28 29 30 31 32 33 34 35 36 37 38 39 40 41 42 43 44 45 46 47 48 49 50
000
ASUS43 KBIS 132102
RWRND

NORTH DAKOTA REGIONAL WEATHER ROUNDUP
NATIONAL WEATHER SERVICE BISMARCK ND
300 PM CST WED DEC 13 2017

NOTE: "FAIR" INDICATES FEW OR NO CLOUDS BELOW 12,000 FEET WITH NO
SIGNIFICANT WEATHER AND/OR OBSTRUCTIONS TO VISIBILITY.


NDZ001>003-009>011-017-132200-
NORTHWEST NORTH DAKOTA

CITY           SKY/WX    TMP DP  RH WIND       PRES   REMARKS
WILLISTON      PTSUNNY   41  24  51 NW18      30.01F
MINOT          CLOUDY    36  26  67 W18G28    29.93R
MINOT AFB      CLOUDY    35  26  71 NW18G24   29.92R
$$

NDZ018>021-031>035-040>046-132200-
SOUTHWEST NORTH DAKOTA

CITY           SKY/WX    TMP DP  RH WIND       PRES   REMARKS
BISMARCK       CLOUDY    37  26  64 NW24G32   29.95R
DICKINSON      MOSUNNY   38  23  55 NW18G25   29.97R
GARRISON         N/A     34  26  72 NW22      29.94R
HETTINGER ARPT CLOUDY    41  20  43 NW23G35   30.00S
$$

NDZ004>008-012>016-024-026-027-054-132200-
NORTHEAST NORTH DAKOTA

CITY           SKY/WX    TMP DP  RH WIND       PRES   REMARKS
GRAND FORKS    FLURRIES  23  19  85 N22       29.87R WCI   8
GRND FRKS AFB  CLOUDY    23  17  78 N22G28    29.87R WCI   8
DEVILS LAKE    CLOUDY    30  25  81 N23G29    29.87R WCI  17
$$

NDZ022-023-025-028>030-036>039-047>053-132200-
SOUTHEAST NORTH DAKOTA

CITY           SKY/WX    TMP DP  RH WIND       PRES   REMARKS
FARGO          CLOUDY    25  22  88 N14G25    29.85R WCI  13
JAMESTOWN      MIX PCPN  33  29  85 N23       29.85R
$$




USA.gov is the U.S. government's official web portal to all federal, state and local government web resources and services.